[[{"header":{"parameterUnit":"m.s-1","parameterCategory":1,"la1":30.2991,"la2":30.254,"lo1":-89.0895,"lo2":-89.0444,"dy":0.0017,"dx":0.0017,"nx":28,"ny":28,"refTime":"2025-09-15T03:00:00:Z","depth":0,"parameterNumber":2,"parameterNumberName":"U-component_of_WINDS"},"data":[0,0,0,0,0,0,0,0,0,0,0,0,0,0,0,0,0,0,0,0,0,0,0,0,0,0,0,0,0,0,0,0,0,0,0,0,0,0,0,0,0,0,0,0,0,0,0,0,0,0,0,0,0,0,0,0,0,0,-2.4048,-2.4048,0,-2.4098,-2.4098,-2.4099,-2.4075,-2.4073,-2.4072,-2.4071,-2.4122,-2.4125,-2.4128,0,0,0,0,0,0,0,0,0,0,0,0,0,-2.3933,-2.3936,-2.4048,-2.4048,-2.4049,-2.4098,-2.4098,-2.4099,-2.4075,-2.4073,-2.4072,-2.407,-2.4122,-2.4125,-2.4128,0,0,0,0,0,0,0,0,0,0,0,0,0,-2.3983,-2.3936,-2.4048,-2.4043,-2.4043,-2.4097,-2.4098,-2.4099,-2.4075,-2.4073,-2.4071,-2.407,-2.4121,-2.4124,-2.4128,-2.419,0,0,-2.414,-2.4142,0,0,0,0,0,0,0,0,-2.398,-2.3987,-2.4043,-2.4043,-2.4044,-2.4078,-2.4077,-2.413,-2.4076,-2.4063,-2.4071,-2.4069,-2.4109,-2.4114,-2.4128,-2.4193,-2.4195,-2.414,-2.4143,-2.4144,-2.4145,0,0,0,0,0,0,0,-2.3977,-2.3985,-2.4068,-2.4044,-2.4044,-2.4039,-2.4044,-2.4087,-2.4096,-2.4064,-2.4062,-2.4068,-2.4109,-2.4124,-2.4129,-2.4196,-2.414,-2.4144,-2.4146,-2.4148,-2.4315,-2.4317,0,0,0,0,0,0,-2.3973,-2.3982,-2.4066,-2.4069,-2.4006,-2.4042,-2.4048,-2.4069,-2.4096,-2.4098,-2.407,-2.4067,-2.4118,-2.4124,-2.413,-2.4205,-2.4144,-2.4148,-2.415,-2.4313,-2.4316,-2.4318,0,0,0,0,0,0,-2.3971,-2.3981,-2.4064,-2.4025,-2.4035,-2.4046,-2.407,-2.4071,-2.4086,-2.41,-2.4102,-2.4083,-2.4117,-2.4125,-2.4176,-2.4206,-2.415,-2.4153,-2.4311,-2.4314,-2.4317,-2.4355,0,0,0,0,0,0,-2.3968,-2.398,-2.4004,-2.4026,-2.4038,-2.4108,-2.4072,-2.4073,-2.4092,-2.4089,-2.4113,-2.4115,-2.4116,-2.417,-2.418,-2.4211,-2.4156,-2.4308,-2.4312,-2.4316,-2.4351,-2.4359,-2.4366,0,0,0,0,0,-2.3964,-2.4013,-2.4005,-2.4015,-2.4067,-2.411,-2.4117,-2.4116,-2.4095,-2.4119,-2.4128,-2.4115,-2.4202,-2.4175,-2.4186,-2.4219,-2.4306,-2.4311,-2.4316,-2.4347,-2.4357,-2.4365,0,0,0,0,0,0,-2.3994,-2.4015,-2.4007,-2.4065,-2.4086,-2.4106,-2.4136,-2.4127,-2.4154,-2.415,-2.4148,-2.4154,-2.4207,-2.4218,-2.4188,-2.428,-2.4251,-2.4258,-2.4271,-2.4281,-2.4288,-2.4284,-2.4159,0,0,0,0,0,-2.4007,-2.404,-2.4057,-2.4106,-2.4117,-2.4125,-2.4144,-2.4141,-2.4163,-2.4172,-2.4185,-2.4207,-2.424,-2.4261,-2.4291,-2.4352,-2.4357,-2.438,-2.4388,-2.4394,-2.44,-2.4433,-2.4443,-2.4334,-2.4334,-2.4334,0,0,-2.4035,-2.4051,-2.4072,-2.4113,-2.4129,-2.4163,-2.4132,-2.417,-2.4196,-2.4178,-2.4226,-2.4237,-2.4262,-2.4318,-2.4343,-2.4329,-2.4431,-2.44,-2.4405,-2.4407,-2.4439,-2.4449,-2.4459,-2.4337,-2.4336,-2.4336,0,0,-2.4103,-2.4119,-2.4161,-2.4178,-2.4202,-2.4207,-2.4218,-2.4239,-2.4246,-2.4294,-2.4282,-2.4313,-2.4368,-2.4386,-2.4403,-2.4478,-2.4467,-2.4489,-2.4527,-2.456,-2.4568,-2.4576,-2.4603,-2.4612,-2.4495,-2.4495,-2.4495,0,-2.4135,-2.4186,-2.4184,-2.4223,-2.4241,-2.4227,-2.427,-2.4286,-2.432,-2.4333,-2.4316,-2.4386,-2.4401,-2.4462,-2.448,-2.4494,-2.4506,-2.4485,-2.4567,-2.4575,-2.4582,-2.4607,-2.4618,-2.4497,-2.4497,-2.4497,-2.4496,0,-2.4223,-2.4259,-2.429,-2.4322,-2.4345,-2.4385,-2.439,-2.4413,-2.4409,-2.4416,-2.4466,-2.4484,-2.4518,-2.4533,-2.4529,-2.4593,-2.4583,-2.4567,-2.4537,-2.4595,-2.4619,-2.4629,-2.4501,-2.45,-2.4499,-2.4498,0,0,-2.4311,-2.4342,-2.4354,-2.4368,-2.4395,-2.4422,-2.4463,-2.4496,-2.4515,-2.4539,-2.4573,-2.4621,-2.4606,-2.4625,-2.4623,-2.4652,-2.4711,-2.4632,-2.4633,-2.4646,-2.4782,-2.4793,-2.4805,-2.4704,-2.4706,-2.4707,-2.478,0,-2.4381,-2.4451,-2.4451,-2.4515,-2.4548,-2.4535,-2.457,-2.4591,-2.4598,-2.4628,-2.4637,-2.467,-2.4648,-2.466,-2.4688,-2.4698,-2.4738,-2.4693,-2.4735,-2.4737,-2.4729,-2.4817,-2.483,-2.4897,-2.4789,-2.4791,-2.4792,0,-2.4471,-2.4498,-2.4566,-2.4587,-2.4601,-2.4632,-2.4663,-2.4691,-2.4714,-2.4718,-2.4739,-2.4733,-2.4775,-2.4744,-2.4802,-2.4771,-2.4788,-2.4796,-2.4799,-2.4802,-2.4767,-2.4823,-2.4919,-2.4929,-2.4807,-2.4805,-2.4804,0,-2.4528,-2.4581,-2.4628,-2.4641,-2.4668,-2.469,-2.4702,-2.4723,-2.4743,-2.477,-2.4783,-2.4815,-2.4832,-2.4857,-2.486,-2.4837,-2.4918,-2.4887,-2.4922,-2.4922,-2.4939,-2.4938,-2.5039,-2.4952,-2.4952,-2.4951,-2.4951,0,-2.4606,-2.4648,-2.4654,-2.4683,-2.473,-2.473,-2.4777,-2.4787,-2.4806,-2.4837,-2.4828,-2.4858,-2.4861,-2.4892,-2.4895,-2.4942,-2.495,-2.4954,-2.4954,-2.4955,-2.4954,-2.4966,-2.4961,-2.4954,-2.4953,-2.4953,-2.4952,0,-2.4677,-2.4683,-2.4734,-2.4755,-2.4761,-2.4795,-2.4813,-2.4841,-2.4848,-2.4887,-2.4897,-2.4908,-2.4944,-2.495,-2.4992,-2.4994,-2.505,-2.5046,-2.5042,-2.5042,-2.5076,-2.5073,-2.5188,-2.5203,-2.5106,-2.5107,-2.5108,0,-2.4726,-2.4758,-2.4782,-2.4802,-2.4815,-2.4848,-2.4868,-2.487,-2.4891,-2.492,-2.4945,-2.4979,-2.5007,-2.5065,-2.5077,-2.511,-2.5106,-2.5144,-2.5111,-2.511,-2.5106,-2.5104,-2.5107,-2.515,-2.5151,-2.5152,-2.5153,0,-2.4812,-2.4814,-2.4843,-2.4873,-2.4897,-2.4921,-2.4944,-2.4961,-2.4966,-2.4991,-2.5027,-2.5049,-2.5092,-2.5126,-2.5159,-2.5172,-2.5164,-2.5163,-2.5173,-2.5174,-2.517,-2.5172,-2.5059,-2.5161,-2.516,-2.5159,-2.5159,-2.5158,-2.4874,-2.4902,-2.4923,-2.4956,-2.4973,-2.4994,-2.5022,-2.5032,-2.5062,-2.5097,-2.5096,-2.5136,-2.5159,-2.5201,-2.5216,-2.5248,-2.5236,-2.525,-2.5254,-2.5257,-2.526,-2.5165,-2.5254,-2.5254,-2.5253,-2.5253,-2.5253,0,-2.496,-2.4973,-2.5003,-2.5035,-2.5061,-2.505,-2.5075,-2.5097,-2.5132,-2.5154,-2.5181,-2.5223,-2.5257,-2.5272,-2.5305,-2.5328,-2.5325,-2.5337,-2.5335,-2.5338,-2.5269,-2.5257,-2.5338,-2.5338,-2.5338,-2.5338,-2.5338,-2.5338,-2.5007,-2.5053,-2.5057,-2.5112,-2.5125,-2.5163,-2.5179,-2.5199,-2.5216,-2.5263,-2.529,-2.53,-2.5319,-2.5354,-2.5384,-2.5388,-2.5401,-2.5414,-2.5416,-2.5351,-2.5343,-2.5335,-2.5323,-2.5417,-2.5417,-2.5482,-2.5483,-2.5483]},{"header":{"parameterUnit":"m.s-1","parameterCategory":1,"la1":30.2991,"la2":30.254,"lo1":-89.0895,"lo2":-89.0444,"dy":0.0017,"dx":0.0017,"nx":28,"ny":28,"refTime":"2025-09-15T03:00:00:Z","depth":0,"parameterNumber":3,"parameterNumberName":"V-component_of_WINDS"},"data":[0,0,0,0,0,0,0,0,0,0,0,0,0,0,0,0,0,0,0,0,0,0,0,0,0,0,0,0,0,0,0,0,0,0,0,0,0,0,0,0,0,0,0,0,0,0,0,0,0,0,0,0,0,0,0,0,0,0,3.6883,3.6884,0,3.6943,3.6944,3.6945,3.6948,3.6948,3.6947,3.6946,3.7003,3.7005,3.7007,0,0,0,0,0,0,0,0,0,0,0,0,0,3.6767,3.6769,3.6883,3.6884,3.6885,3.6943,3.6944,3.6945,3.6948,3.6948,3.6947,3.6946,3.7002,3.7005,3.7007,0,0,0,0,0,0,0,0,0,0,0,0,0,3.6821,3.677,3.6883,3.6894,3.6895,3.6943,3.6944,3.6945,3.6949,3.6948,3.6947,3.6946,3.7001,3.7004,3.7007,3.7047,0,0,3.7017,3.7019,0,0,0,0,0,0,0,0,3.6818,3.6825,3.6891,3.6893,3.6895,3.6937,3.6924,3.6979,3.6949,3.6928,3.6946,3.6945,3.6981,3.6986,3.7,3.705,3.7052,3.7018,3.7019,3.7021,3.7022,0,0,0,0,0,0,0,3.6814,3.6823,3.6907,3.6892,3.6894,3.6894,3.69,3.6934,3.6959,3.693,3.693,3.6938,3.6982,3.6997,3.7001,3.7053,3.7017,3.702,3.7022,3.7023,3.7139,3.714,0,0,0,0,0,0,3.6809,3.6819,3.6905,3.6909,3.6853,3.6897,3.6904,3.6925,3.6959,3.6964,3.6938,3.6938,3.6992,3.6997,3.7003,3.7051,3.7021,3.7024,3.7026,3.7138,3.7139,3.714,0,0,0,0,0,0,3.6806,3.6817,3.6902,3.6864,3.6875,3.69,3.6923,3.6926,3.6941,3.6966,3.697,3.6949,3.6991,3.6998,3.7037,3.7053,3.7025,3.7028,3.7136,3.7138,3.714,3.7149,0,0,0,0,0,0,3.6803,3.6816,3.6832,3.6865,3.6877,3.6936,3.6924,3.6928,3.6947,3.6946,3.6976,3.698,3.6991,3.7032,3.704,3.7057,3.7031,3.7135,3.7137,3.7139,3.7147,3.715,3.7153,0,0,0,0,0,3.6799,3.6831,3.6833,3.6843,3.6898,3.6937,3.6944,3.6957,3.6948,3.6964,3.698,3.6979,3.7051,3.7036,3.7045,3.7063,3.7134,3.7137,3.7139,3.7145,3.715,3.7153,0,0,0,0,0,0,3.6797,3.6835,3.6838,3.6882,3.6907,3.6938,3.6958,3.6961,3.6988,3.6986,3.6999,3.7006,3.7043,3.7057,3.704,3.7104,3.7091,3.7096,3.7093,3.7097,3.71,3.7095,3.7033,0,0,0,0,0,3.6803,3.6833,3.6864,3.6899,3.6912,3.6933,3.695,3.6958,3.6984,3.6994,3.7013,3.7036,3.7064,3.7081,3.7108,3.715,3.7156,3.7167,3.717,3.7173,3.7176,3.7198,3.7203,3.7149,3.7149,3.7149,0,0,3.6812,3.6837,3.6855,3.6899,3.692,3.6949,3.6941,3.6973,3.6994,3.6998,3.7035,3.705,3.7077,3.7117,3.7135,3.713,3.7193,3.7176,3.7178,3.718,3.7201,3.7206,3.7211,3.7151,3.715,3.715,0,0,3.6845,3.6868,3.69,3.6921,3.6952,3.6966,3.6974,3.7006,3.7016,3.7055,3.7058,3.7083,3.7131,3.715,3.7166,3.7208,3.7207,3.7216,3.7232,3.7254,3.7258,3.7262,3.7276,3.7281,3.722,3.722,3.722,0,3.6853,3.6899,3.6915,3.6947,3.6966,3.6973,3.7005,3.7024,3.7062,3.7074,3.7068,3.7128,3.7147,3.7191,3.7202,3.7215,3.7223,3.7212,3.7257,3.7261,3.7264,3.7278,3.7283,3.722,3.722,3.722,3.722,0,3.6906,3.6938,3.696,3.6999,3.702,3.7052,3.7071,3.7091,3.7098,3.7112,3.7151,3.7174,3.7206,3.7217,3.7223,3.7262,3.7258,3.7254,3.7241,3.727,3.7283,3.7288,3.7221,3.7221,3.7221,3.7221,0,0,3.6938,3.6987,3.6994,3.7012,3.7048,3.7072,3.7104,3.7137,3.7153,3.7179,3.7205,3.7246,3.7243,3.7261,3.7269,3.7289,3.7319,3.7283,3.7283,3.7287,3.7363,3.7364,3.737,3.7321,3.7322,3.7323,3.736,0,3.6974,3.7032,3.7048,3.7096,3.7125,3.7133,3.7161,3.7185,3.72,3.7226,3.7241,3.727,3.7265,3.7276,3.7295,3.7312,3.7334,3.7309,3.7343,3.7344,3.7334,3.7377,3.7378,3.7413,3.7365,3.7366,3.7367,0,3.7023,3.7052,3.7104,3.7137,3.715,3.7174,3.7206,3.7231,3.7259,3.7268,3.7289,3.7296,3.7328,3.7316,3.7359,3.7342,3.7357,3.7367,3.7369,3.737,3.7356,3.7378,3.7424,3.7428,3.7375,3.7374,3.7374,0,3.7039,3.7091,3.7129,3.7144,3.7184,3.7201,3.7218,3.7245,3.7264,3.7291,3.7303,3.7333,3.7349,3.7372,3.7387,3.7376,3.7428,3.7417,3.7436,3.7435,3.7444,3.7443,3.7491,3.7457,3.7457,3.7457,3.7457,0,3.7076,3.7107,3.7137,3.716,3.7195,3.7213,3.7246,3.7263,3.7288,3.7313,3.7322,3.7345,3.7364,3.739,3.7401,3.7435,3.7442,3.745,3.7452,3.7448,3.7447,3.7456,3.7454,3.7458,3.7458,3.7458,3.7457,0,3.7099,3.712,3.7162,3.7197,3.7207,3.7231,3.726,3.7282,3.7298,3.733,3.7339,3.7363,3.7394,3.7411,3.7449,3.7457,3.7494,3.7496,3.7485,3.7486,3.7503,3.7501,3.7557,3.7565,3.7527,3.7527,3.7528,0,3.712,3.7144,3.7183,3.7202,3.722,3.7249,3.7269,3.7288,3.7308,3.7343,3.736,3.7392,3.7418,3.7467,3.7487,3.7516,3.7518,3.7536,3.7522,3.7517,3.7517,3.7514,3.7516,3.7537,3.7538,3.7538,3.7538,0,3.7155,3.7165,3.7195,3.7228,3.7253,3.7279,3.7306,3.732,3.7343,3.7365,3.7398,3.7419,3.7459,3.749,3.7521,3.7537,3.7541,3.7543,3.7549,3.7544,3.7536,3.7539,3.749,3.7541,3.7541,3.7541,3.754,3.754,3.7177,3.7199,3.723,3.7263,3.7285,3.731,3.7333,3.7353,3.7381,3.7416,3.7425,3.7459,3.7487,3.7529,3.7546,3.7572,3.7569,3.7577,3.7579,3.758,3.758,3.7534,3.7578,3.7578,3.7578,3.7578,3.7578,0,3.7212,3.7233,3.7263,3.7301,3.7326,3.7331,3.736,3.7381,3.7411,3.7437,3.7464,3.7501,3.7532,3.7555,3.7586,3.7602,3.7605,3.7609,3.7607,3.7611,3.7582,3.7574,3.7607,3.7607,3.7607,3.7607,3.7607,3.7607,3.7233,3.727,3.7284,3.7333,3.7353,3.7388,3.7404,3.7427,3.7448,3.749,3.7516,3.7532,3.7557,3.759,3.7618,3.7624,3.7634,3.7638,3.7644,3.7616,3.7613,3.761,3.7602,3.7641,3.7641,3.7671,3.7671,3.7671]}]]